Flag for Norway Weather past 2 weeks in Kirkenes, Norway

Now
32 °F

Chilly.


Feels Like: 27 °F
Forecast: 22 / 33 °F
Wind: 5 mph from Southwest

Location: Kirkenes Lufthavn

Current Time: Mar 28, 2015 at 5:51:44 PM

Latest Report: Mar 28, 2015 at 5:00 PM


Visibility: N/A

Pressure: 29.59 "Hg

Humidity: 90%

Dew point: 29 °F

Location of KirkenesLocation

Historic Weather in Kirkenes — Graph

°F

Kirkenes temperature yesterday

Maximum temperature yesterday: 35 °F (at 4:00 PM)
Minimum temperature yesterday: 15 °F (at 3:00 AM)
Average temperature yesterday: 27 °F

Past Weeks' High & Low Weather Summary

 TemperatureHumidityPressure
High40 °F (Mar 14, 9:00 AM)97% (Mar 19, 6:00 PM)30.66 "Hg (Mar 19, 6:00 PM)
Low2 °F (Mar 22, 5:00 AM)39% (Mar 27, 1:00 PM)29.35 "Hg (Mar 23, 12:00 PM)
Average26 °F77%30.00 "Hg
* Reported Mar 13 4:00 PM — Mar 28 4:00 PM, Kirkenes, Weather by CustomWeather, © 2015

Note: Actual official high and low records may vary slightly from our data, if they occured in-between our weather recording intervals... More about our weather records

Advertising

Kirkenes weather history for previous 24 hours

 ConditionsComfort  
Time TempWeatherWind HumidityBarometerVisibility
4:00 PM
Sat, Mar 28
32 °FChilly.5 mph92%29.60 "HgN/A
3:00 PM32 °FChilly.6 mph92%29.60 "HgN/A
2:00 PM32 °FChilly.7 mph89%29.62 "HgN/A
1:00 PM32 °FChilly.6 mph86%29.64 "HgN/A
12:00 PM32 °FChilly.7 mph84%29.65 "HgN/A
11:00 AM32 °FChilly.8 mph79%29.65 "HgN/A
10:00 AM31 °FChilly.7 mph81%29.66 "HgN/A
9:00 AM30 °FChilly.9 mph82%29.67 "HgN/A
8:00 AM30 °FChilly.10 mph80%29.67 "HgN/A
7:00 AM28 °FChilly.13 mph83%29.68 "HgN/A
6:00 AM27 °FChilly.13 mph87%29.69 "HgN/A
5:00 AM26 °FChilly.12 mph90%29.72 "HgN/A
3:00 AM29 °FChilly.7 mph59%29.78 "HgN/A
2:00 AM29 °FChilly.10 mph60%29.79 "HgN/A
1:00 AM29 °FChilly.12 mph60%29.81 "HgN/A
12:00 AM28 °FChilly.10 mph62%29.84 "HgN/A
11:00 PM
Fri, Mar 27
29 °FChilly.10 mph60%29.87 "HgN/A
9:00 PM33 °FChilly.12 mph51%29.89 "HgN/A
8:00 PM34 °FChilly.12 mph49%29.91 "HgN/A
7:00 PM35 °FChilly.12 mph47%29.91 "HgN/A
6:00 PM35 °FChilly.10 mph49%29.91 "HgN/A
5:00 PM35 °FChilly.9 mph47%29.93 "HgN/A
Weather by CustomWeather, © 2015

See weather overviewHow to use our weather pages